AirNav   Air Wisconsin pilot careers
 
 362 users online  

7MI Flugplatz Airport
Lexington, Michigan, USA

GOING TO LEXINGTON?


FAA INFORMATION EFFECTIVE 26 APRIL 2018

Location

FAA Identifier: 7MI
Lat/Long: 43-20-30.2750N / 082-32-53.8250W
43-20.504583N / 082-32.897083W
43.3417431 / -82.5482847
(estimated)
Elevation: 700 ft. / 213 m (estimated)
Variation: 07W (1995)
From city: 5 miles N of LEXINGTON, MI
Time zone: UTC -4 (UTC -5 during Standard Time)
Zip code: 48401

Airport Operations

Airport use: Open to the public
Activation date: 07/2000
Control tower: no
ARTCC: CLEVELAND CENTER
FSS: LANSING FLIGHT SERVICE STATION
NOTAMs facility: LAN (NOTAM-D service available)
Attendance: IRREG
Wind indicator: yes
Segmented circle: no

Airport Communications

CTAF: 122.9

Airport Services

Fuel available: 100LL
EMERGENCY ONLY

Runway Information

Runway 9/27

Dimensions: 3873 x 80 ft. / 1180 x 24 m
Surface: turf, in good condition
Runway edge markings: 3 FT YELLOW CONES.
RUNWAY 9  RUNWAY 27
Latitude: 43-20.467500N43-20.541667N
Longitude: 082-33.330833W082-32.463333W
Elevation: 669.0 ft.645.0 ft.
Traffic pattern: leftleft
Runway heading: 090 magnetic, 083 true270 magnetic, 263 true
Displaced threshold: 600 ft.1276 ft.
Obstructions: 18 ft. road, 48 ft. from runway, 2:1 slope to clear
APCH RATIO 36:1 AT DSPLCD THLD.
65 ft. trees, 132 ft. from runway, 2:1 slope to clear
APCH RATIO 20:1 AT DSPLCD THLD.

Airport Ownership and Management from official FAA records

Ownership: Privately-owned
Owner: WILLIAM SCHUTZLER
7126 TOWNSEND
APPLEGATE, MI 48401
Phone 810-359-7497
Manager: WILLIAM SCHUTZLER
7126 TOWNSEND
APPLEGATE, MI 48401
Phone 810-359-7497
OTHER CONTACT: GEORGE CRACKEL 6932 TOWNSEND, APPLEGATE MI 48401; 810-359-7176

Airport Operational Statistics

Aircraft based on the field: 3
Single engine airplanes: 2
Multi engine airplanes: 1
    
Aircraft operations: 200/year *
50% transient general aviation
50% local general aviation
* for 12-month period ending 31 December 2015

Additional Remarks

DEER ON AND INVOF ARPT.
FOR RY CONDITIONS CALL 810-359-7697.

Instrument Procedures

There are no published instrument procedures at 7MI.

Some nearby airports with instrument procedures:

77G - Marlette Airport (24 nm W)
KPHN - St Clair County International Airport (26 nm S)
KBAX - Huron County Memorial Airport (32 nm NW)
D95 - Dupont-Lapeer Airport (36 nm SW)
D98 - Romeo State Airport (38 nm SW)
 
Loc | Ops | Rwys | IFR | FBO | Links
Com | Nav | Svcs | Stats | Notes

AirNav Hotels Sweepstakes
 
Area around 7MI (Flugplatz Airport)
 
Road maps at: MapQuest Bing Google
 
Aerial photo
WARNING: Photo may not be current or correct
Aerial photo of 7MI (Flugplatz Airport)
Photo by Bill Schutzler
Photo taken 09-Jul-2008

Do you have a better or more recent aerial photo of Flugplatz Airport that you would like to share? If so, please send us your photo.

 
Sectional chart

 
Airport distance calculator
Flying to Flugplatz Airport? Find the distance to fly.

From to 7MI

Sunrise and sunset
Times for 24-May-2018
 Local
(UTC-4)
 Zulu
(UTC)
Morning civil twilight05:2509:25
Sunrise05:5909:59
Sunset20:5500:55
Evening civil twilight21:2901:29

Current date and time
Zulu (UTC)  24-May-2018 07:26:32
Local (UTC-4)  24-May-2018 03:26:32
 
METAR
CYZR 
23nm SE 
240700Z AUTO 19002KT 9SM CLR 11/09 A3018 RMK SLP223
KPHN 
26nm S 
240716Z AUTO 00000KT 5SM BR CLR 08/07 A3020 RMK AO2
KBAX 
33nm NW 
240716Z AUTO 00000KT 10SM CLR 10/09 A3019 RMK AO2 T01010090
KD95 
36nm SW 
240715Z AUTO 00000KT 7SM CLR 10/09 A3021 RMK AO2 T00950091
KCFS 
40nm W 
240715Z AUTO 00000KT 10SM CLR 10/09 A3019 RMK AO2 T01000092
KP58 
42nm N 
240651Z AUTO 23005KT 16/10 A3015 RMK AO1 SLP208 T01610100
CWGD 
44nm NE 
240700Z AUTO 13003KT 10/08 RMK AO1 SLP220 T00980078 50002
KMTC 
45nm S 
240656Z AUTO 00000KT 10SM CLR 13/13 A3018 RMK AO2 SLP223 T01300130 $
TAF
CYZR 
23nm SE 
231938Z 2320/2402 03012KT P6SM FEW250 BECMG 2323/2401 VRB03KT RMK FCST BASED ON AUTO OBS. NXT FCST WILL BE ISSUED AT 240745Z
NOTAMs
Click for the latest NOTAMs
NOTAMs are issued by the DoD/FAA and will open in a separate window not controlled by AirNav.

 

 
 

Would you like to see your business listed on this page?

 If your business provides an interesting product or service to pilots, flight crews, aircraft, or users of the Flugplatz Airport, you should consider listing it here.  To start the listing process, click on the button below
 
Add a business
 

Other Pages about Flugplatz Airport

Update a link
 
Copyright © AirNav, LLC. All rights reserved. Privacy Policy  Contact